FW1524 Weather Reports


time (UTC)temp
F
wind
direction
speed
knots
gust
knots
rain 1hr
in
rain 24hr
in
rain mn
in
humidity
%
barometer
mb
20260504081524 43 219 0.0 0.0 0.00 0.00 0.00 39 1009.9
20260504044650 46 215 0.0 0.0 0.00 0.00 0.00 51 1009.9
20260504041529 48 214 0.0 0.0 0.00 0.00 0.00 53 1010.0
20260504040026 49 222 0.0 0.0 0.00 0.00 0.00 53 1009.9
20260504034520 49 223 0.0 0.0 0.00 0.00 0.00 51 1009.9
20260504031515 49 223 0.0 0.0 0.00 0.00 0.00 51 1010.0
20260504030011 50 223 0.0 0.0 0.00 0.00 0.00 52 1010.1
20260504024509 50 223 0.0 0.0 0.00 0.00 0.00 53 1010.1
20260504021529 50 223 0.0 0.0 0.00 0.00 0.00 56 1010.2
20260504020024 49 223 0.0 0.0 0.00 0.00 0.00 59 1010.2
20260504014520 49 221 0.0 0.0 0.00 0.00 0.00 59 1010.1
20260504011502 51 221 0.0 0.0 0.00 0.00 0.00 59 1009.9
20260504010100 51 194 0.0 0.0 0.00 0.00 0.00 58 1009.8
20260504004554 51 194 0.0 0.0 0.00 0.00 0.00 58 1009.8
20260504001549 52 203 0.0 0.0 0.00 0.00 0.00 58 1009.2
20260504000100 53 201 0.0 0.0 0.00 0.00 0.00 58 1009.1
20260503234536 55 201 0.0 0.0 0.00 0.00 0.00 57 1009.0
20260503231552 56 201 0.0 0.0 0.00 0.00 0.00 49 1008.9
20260503230053 56 201 0.0 0.0 0.00 0.00 0.00 49 1009.0
20260503224543 56 201 0.0 0.0 0.00 0.00 0.00 47 1009.0
20260503221508 56 256 0.0 0.0 0.00 0.00 0.00 48 1009.1
20260503220013 56 226 0.0 0.0 0.00 0.00 0.00 48 1009.2
20260503214600 56 22 0.0 0.9 0.00 0.00 0.00 48 1009.4
20260503211600 56 232 0.0 8.7 0.00 0.00 0.00 49 1009.4
20260503210054 55 32 0.9 7.0 0.00 0.00 0.00 48 1009.7
20260503204549 57 17 0.0 6.1 0.00 0.00 0.00 44 1009.3
20260503201537 57 207 0.0 5.2 0.00 0.00 0.00 41 1009.2
20260503200034 57 290 0.0 7.0 0.00 0.00 0.00 41 1009.3
20260503194530 57 215 0.0 5.2 0.00 0.00 0.00 40 1009.3
20260503191513 56 228 0.0 1.7 0.00 0.00 0.00 40 1009.7
20260503190009 55 14 0.0 7.0 0.00 0.00 0.00 40 1010.0
20260503184511 57 213 0.0 7.8 0.00 0.00 0.00 39 1010.0
20260503181559 56 14 0.0 2.6 0.00 0.00 0.00 41 1010.4
20260503180057 55 215 0.0 12.2 0.00 0.00 0.00 44 1010.8
20260503174551 55 242 0.0 8.7 0.00 0.00 0.00 43 1011.0
20260503173146 54 355 0.0 0.9 0.00 0.00 0.00 45 1011.2
20260503171604 53 234 0.0 6.1 0.00 0.00 0.00 44 1011.2